Location: Azul
(36.7830°S, 59.8500°W)
Time: 09:11:19
(UTC-03:00)

ISS - Pass Details

Date: 08 December 2019
Orbit: 411 x 421 km, 51.6° (Epoch: 11 December)

Event Time Altitude Azimuth Distance (km) Brightness Sun altitude
Exits shadow 02:39:43 12° 219° (SW) 1,401 -0.9 -25.2°
Maximum altitude 02:40:37 13° 202° (SSW) 1,350 -0.7 -25.2°
Drops below altitude 10° 02:42:20 10° 172° (S) 1,529 0.0 -25.0°
Sets 02:45:22 0° 143° (SE) 2,396 1.4 -24.7°
